STARLINK-2333 (47877 NORAD) Tracking and Keplerian Element Data

This shows tracking and keplerian element data for the satellite.

Feedback or suggestion? Click here.




ElementValue
Catalog47877
NameSTARLINK-2333
Epoch Orbit197
Epoch Day173.91668981
Epoch Year2021
RAAN79.475
Inclination53.0471
Eccentricity0.0001251
Argument of Perigee72.5328
Mean Anonmoly28.7532
Mean Motion15.48599838
Decay Rate-0.01080324
L11 47877U 21021T 21173.91668981 -.01080324 00000-0 -21982-1 0 9994
L22 47877 53.0471 79.4750 0001251 72.5328 28.7532 15.48599838 1977

Live tracking and technical data element details for STARLINK-2333 (NORAD 47877). STARLINK-2333 can be tracked NOW for your location showing map with azimuth and elevation plus other details from your city location.

Track the satellite on the map from your city or location and see movement details for azimuth, elevation, latitude, longitude, range, height, and movement on the map or in text.







IsCatalogInMostPopularTable: catalog: 47877, numindb: 49
Update: records affected: 1



GetName: 47877 STARLINK-2333

Hit Count: updated at: Thu, 24 Jun 2021 02:10:31 GMT